Vertical_Velocity
-3 5 -2 -1 -1 -0 -3 -2 0 2 3 2 -2 -2 -1 -2 4 1 -15 3 -1 2 -1 6 2 -0 -0 -9 -2 -0 -9 -0 -0 -1 -1 3 -2 3 10 -8 -1 1 -4 5 5
0 -3 -2 -1 2 -3 0 0 1 4 1 -2 -1 -1 -0 0 1 -4 3 1 1 0 -2 -4 -8 4 -16 -3 -4 -10 -4 0 1 -0 -1 1 -3 -1 -6 2 5 -0 6 7 -1
-2 -2 0 1 -5 1 0 2 1 2 -1 -2 -1 -2 -1 -0 -2 -1 1 -0 -1 2 -3 -5 -2 -7 -8 2 -0 2 -2 1 5 -1 -3 -1 -2 0 -4 -1 2 -5 -1 -2 -4
0 1 0 -2 -1 1 1 2 -0 -1 -1 0 -3 -2 -1 -2 -12 -2 -1 -3 -3 0 -1 -4 -3 -7 -4 -2 3 -10 3 -2 3 3 -2 -0 -0 -1 1 1 -2 -2 -1 -2 -1
2 0 -1 -1 -1 1 0 0 -0 -2 1 0 -3 0 -0 -8 1 2 -1 1 -3 1 -2 -5 -8 -3 -2 -2 -5 -6 2 -1 3 3 -1 -0 0 -2 3 2 1 -1 -0 -1 -3
-0 -1 -2 -0 -0 -1 -2 -0 1 0 0 -2 -0 -1 -3 -21 2 -1 1 8 -2 2 0 1 -4 -2 -6 -0 -4 1 -1 2 6 -0 -3 -9 3 -1 6 2 2 2 1 -1 1
-0 -1 -2 0 -3 -0 -1 1 1 1 -2 -1 -1 0 -10 1 -2 1 3 -1 2 -0 -10 -0 1 0 -0 -1 5 2 -5 0 1 0 -0 -4 1 -1 -3 5 0 3 2 -0 -3
0 -2 -1 -0 -4 1 2 1 2 -0 -0 -0 1 -0 -7 1 -2 3 -0 2 3 0 -6 3 4 -15 -3 4 -2 -4 -3 -1 -1 1 0 1 -2 -0 4 0 1 3 1 1 0
-0 -2 -0 -1 -0 -1 2 2 -1 -2 -2 0 -3 -4 -2 0 2 -1 -3 -1 3 4 1 2 -6 -8 1 -3 -3 0 -1 1 1 -1 -0 1 -1 -4 4 4 0 2 1 2 1
1 -1 1 -1 1 -2 0 1 2 -1 -0 1 -2 -6 -3 -1 -1 -1 -1 -0 -2 2 1 -1 -5 -3 -2 -4 -4 -1 0 0 -1 -4 2 2 -1 1 1 2 -1 0 1 2 4
-0 -0 1 -1 -0 -1 1 -1 -2 -5 -10 1 -0 -0 -1 1 1 -0 -1 2 2 0 -2 -1 -11 -1 -1 -0 -1 0 0 -0 -0 -1 -0 -2 -0 -2 0 6 0 1 1 2 2
1 0 0 0 -1 -0 -3 -1 -1 -2 -6 2 1 -2 1 0 -0 1 2 -4 -2 -1 -0 -9 -2 -1 0 -0 0 0 -0 -0 -1 -0 -0 -0 -1 -1 1 0 -3 -3 3 2 2
2 1 -0 1 -1 -0 -2 -3 1 -2 -4 -0 -1 -1 -2 2 -1 -1 -2 0 -2 -3 -0 -4 -2 1 -0 -1 -2 -0 -1 -0 -2 0 -0 -0 -1 1 1 1 3 6 3 1 -1
2 -1 0 0 -1 -1 1 -2 1 1 -9 -9 -4 -2 -1 -1 -3 1 1 -1 -1 -3 -1 -1 -1 -0 -1 -0 -0 0 -1 -0 0 -2 -3 -3 -6 -0 -0 0 1 4 1 -0 -2
1 -2 1 1 -2 -1 -2 -1 0 1 -8 -4 -2 1 1 -4 -1 -4 0 0 -0 0 -4 -2 -1 -1 -1 -1 -0 -6 0 -0 -0 -0 -1 0 -4 -5 -0 1 -1 0 2 -0 0
1 -2 -0 2 0 -1 -1 -2 0 -19 -4 -3 1 -0 -3 -1 -0 1 -3 -0 0 -2 -3 0 1 -1 -1 -1 0 -0 -1 -2 -1 -1 -3 -2 -3 -5 -2 -6 1 2 2 -0 1
1 0 0 -1 -1 -0 -1 -1 -13 -9 -3 -2 -1 -1 -0 -1 -2 -2 -3 -5 -3 -3 -3 -2 -1 -2 0 -1 -2 -5 -5 -4 -8 -6 -6 -0 -1 -9 -1 -1 -4 -4 -0 0 2
-0 0 -0 -0 -0 1 -0 -10 -7 -2 -1 -1 -0 -0 -1 -0 -0 -0 -1 -1 -2 -2 -1 -1 -9 -1 -0 -1 -1 0 -3 -5 -1 -1 -4 -0 -4 -10 -2 0 2 3 1 2 1
-1 -0 -1 -1 -0 2 -2 -5 -8 -2 -1 -1 -0 -1 -1 -0 -1 -4 -0 -0 0 -0 -3 -1 -2 0 -0 -0 -4 0 -4 -3 -2 -0 -1 -3 -6 0 1 1 2 1 1 1 0
0 0 -0 -0 -0 3 -9 -2 -1 0 -0 1 -1 -1 -1 -1 -1 -3 0 -0 -0 -0 0 -1 -4 -1 -0 -0 0 -1 -4 -6 -4 -2 -2 -4 -2 -6 -0 -1 1 2 0 -0 -0
1 -1 1 -0 -0 -0 -4 -2 -0 0 0 -1 -1 -0 -0 -0 -1 0 -1 -0 -0 -1 0 -0 -4 -4 -3 -1 -2 -2 -1 -2 -6 -4 -2 -1 -11 -3 -3 -3 -2 -0 -0 -0 0
-0 -3 2 2 -4 1 -1 -0 1 -0 0 -0 -3 -1 -1 0 -0 -0 -2 -0 0 0 0 0 -3 -1 -5 -0 -0 -0 -1 -2 -5 -5 -1 -2 -17 0 -1 -1 -1 -1 -0 0 -0
-0 -2 0 2 -5 -1 1 0 -0 0 -0 -0 -0 -1 0 -1 -2 -0 -0 0 -0 -0 -1 -1 -2 -4 -12 -6 -1 1 -1 -1 -1 -2 -3 -3 -14 0 1 1 2 -3 -1 0 0
-1 -6 0 1 0 -6 -1 1 -0 0 -0 -0 -1 0 -1 -0 -0 -2 0 -0 0 -0 0 -1 -0 -4 -7 -10 -2 1 0 0 -4 -1 -3 -7 -4 1 0 -0 2 1 1 -0 -0
-0 -2 1 -3 -1 -0 -1 -2 0 0 0 1 1 -1 -2 -1 0 -0 0 0 -0 0 1 -3 -0 1 -2 -1 1 -1 -1 0 0 -4 -5 -7 -1 -2 -3 -5 -5 -1 1 -0 1
-1 -2 -0 -0 2 -1 1 -1 -2 0 -2 -1 -1 0 -0 -2 -5 -2 -2 -0 -2 1 0 0 -2 -0 -2 -0 0 0 -0 0 -0 -0 1 2 -8 -1 3 3 1 -1 0 1 -1
-1 0 0 0 1 -3 -4 -2 -3 -2 1 0 -0 -3 -0 -2 -1 -0 0 -1 -1 -4 -0 -1 -1 -2 -5 0 -2 -5 -3 -1 -1 -0 -5 -2 -9 -0 2 1 -2 -1 -0 -0 1
Height
1546 1545 1547 1548 1549 1549 1552 1554 1555 1556 1556 1557 1557 1557 1556 1557 1557 1556 1555 1558 1557 1556 1555 1554 1553 1552 1553 1554 1558 1560 1582 1597 1597 1599 1603 1605 1607 1610 1612 1610 1612 1615 1617 1621 1621
1547 1547 1549 1550 1550 1552 1554 1556 1557 1558 1558 1559 1559 1558 1558 1559 1558 1556 1560 1559 1558 1557 1557 1554 1554 1554 1556 1561 1563 1566 1591 1594 1593 1595 1600 1604 1606 1610 1616 1615 1617 1619 1621 1620 1620
1548 1549 1550 1551 1553 1555 1557 1558 1559 1560 1561 1561 1561 1560 1560 1559 1558 1562 1561 1560 1559 1559 1558 1556 1557 1557 1561 1566 1571 1578 1592 1595 1598 1597 1601 1604 1608 1611 1614 1619 1618 1619 1620 1620 1619
1550 1551 1552 1554 1556 1557 1559 1561 1561 1562 1562 1563 1562 1561 1560 1560 1569 1565 1564 1563 1561 1560 1559 1558 1559 1560 1570 1575 1578 1587 1594 1594 1600 1602 1603 1605 1608 1611 1613 1616 1618 1619 1619 1620 1619
1552 1553 1555 1557 1558 1560 1561 1563 1563 1564 1564 1564 1564 1563 1561 1562 1568 1567 1566 1566 1564 1563 1562 1560 1560 1565 1574 1580 1582 1589 1596 1598 1601 1602 1605 1607 1610 1611 1615 1616 1617 1618 1618 1618 1617
1553 1554 1557 1559 1561 1562 1563 1564 1565 1566 1566 1567 1566 1565 1564 1563 1570 1569 1569 1568 1566 1565 1564 1563 1564 1567 1575 1582 1585 1593 1596 1601 1603 1604 1607 1608 1612 1613 1618 1616 1617 1617 1617 1616 1616
1554 1557 1559 1561 1563 1564 1565 1566 1567 1568 1568 1568 1568 1567 1566 1573 1572 1572 1571 1569 1568 1568 1566 1567 1567 1569 1578 1588 1593 1596 1603 1604 1606 1607 1607 1608 1613 1613 1614 1616 1616 1616 1615 1616 1616
1556 1558 1561 1563 1565 1566 1568 1569 1570 1570 1570 1571 1571 1570 1572 1574 1574 1574 1573 1572 1572 1570 1569 1570 1571 1571 1580 1591 1596 1600 1603 1609 1604 1605 1606 1608 1611 1611 1613 1614 1615 1616 1616 1616 1615
1557 1561 1563 1566 1567 1569 1570 1571 1571 1572 1572 1572 1573 1572 1576 1577 1576 1575 1575 1574 1574 1574 1573 1574 1574 1580 1588 1593 1601 1602 1605 1604 1604 1602 1604 1609 1610 1609 1611 1612 1614 1615 1615 1615 1614
1560 1563 1566 1568 1570 1572 1572 1572 1573 1574 1574 1574 1574 1576 1579 1579 1576 1576 1576 1576 1576 1576 1576 1575 1578 1585 1591 1596 1605 1599 1601 1600 1601 1601 1602 1606 1607 1608 1609 1610 1612 1614 1614 1614 1613
1562 1566 1568 1570 1572 1573 1573 1574 1577 1577 1576 1579 1579 1578 1579 1579 1578 1577 1576 1576 1576 1576 1579 1579 1588 1597 1593 1592 1591 1591 1594 1595 1598 1597 1601 1601 1606 1605 1606 1610 1611 1612 1612 1612 1611
1564 1568 1570 1572 1574 1575 1575 1574 1575 1579 1582 1582 1582 1581 1580 1579 1579 1578 1577 1577 1577 1582 1581 1587 1596 1591 1590 1590 1588 1589 1591 1598 1598 1597 1599 1600 1604 1604 1607 1608 1609 1610 1610 1611 1610
1567 1570 1573 1574 1575 1576 1575 1576 1578 1579 1581 1585 1584 1583 1582 1582 1581 1580 1579 1580 1581 1586 1589 1592 1592 1589 1589 1594 1594 1594 1593 1596 1597 1597 1596 1597 1604 1608 1607 1608 1608 1609 1608 1608 1608
1570 1572 1574 1576 1579 1577 1577 1578 1579 1580 1591 1590 1585 1585 1585 1582 1584 1583 1582 1582 1583 1589 1590 1593 1591 1590 1590 1594 1595 1594 1591 1591 1592 1599 1603 1598 1606 1610 1607 1607 1606 1606 1606 1606 1606
1571 1574 1576 1577 1577 1578 1579 1579 1579 1580 1609 1590 1587 1586 1585 1585 1587 1585 1584 1582 1586 1589 1591 1596 1593 1594 1594 1593 1593 1592 1589 1590 1590 1596 1599 1603 1612 1596 1606 1608 1604 1604 1604 1604 1604
1573 1575 1577 1578 1578 1579 1579 1579 1580 1592 1607 1591 1587 1586 1586 1586 1587 1587 1585 1585 1587 1589 1590 1594 1593 1594 1594 1591 1591 1589 1590 1593 1597 1603 1608 1596 1600 1595 1606 1596 1599 1601 1602 1602 1602
1574 1576 1577 1578 1579 1579 1580 1580 1591 1603 1590 1592 1590 1587 1589 1591 1589 1589 1594 1597 1600 1598 1602 1596 1595 1594 1593 1593 1590 1592 1597 1608 1604 1608 1603 1597 1600 1586 1591 1591 1592 1596 1599 1600 1600
1575 1576 1577 1578 1579 1579 1580 1581 1597 1591 1591 1588 1588 1589 1592 1591 1591 1593 1597 1605 1602 1603 1608 1608 1603 1596 1596 1597 1599 1598 1601 1613 1609 1613 1606 1595 1597 1586 1590 1592 1594 1595 1597 1599 1600
1576 1577 1578 1578 1578 1579 1580 1595 1593 1589 1587 1589 1589 1592 1594 1591 1592 1597 1603 1606 1605 1604 1604 1607 1600 1596 1596 1596 1598 1597 1606 1602 1608 1612 1616 1598 1591 1590 1592 1594 1593 1595 1596 1598 1597
1575 1577 1577 1578 1578 1579 1581 1593 1590 1587 1587 1588 1591 1591 1596 1594 1594 1597 1602 1604 1603 1603 1603 1605 1606 1596 1595 1595 1596 1597 1599 1604 1614 1609 1609 1599 1595 1582 1594 1590 1591 1593 1595 1596 1595
1576 1577 1576 1577 1578 1578 1589 1591 1588 1587 1587 1588 1590 1591 1594 1594 1595 1599 1604 1605 1604 1603 1603 1604 1607 1599 1597 1597 1597 1601 1602 1603 1609 1616 1613 1615 1592 1579 1580 1582 1587 1591 1593 1592 1592
1575 1576 1576 1577 1580 1583 1588 1586 1587 1587 1587 1587 1588 1590 1593 1595 1598 1600 1601 1603 1604 1604 1604 1605 1610 1608 1595 1595 1596 1598 1597 1602 1614 1608 1617 1621 1595 1578 1578 1581 1585 1588 1589 1590 1590
1574 1575 1576 1576 1584 1589 1587 1588 1587 1588 1588 1587 1590 1590 1592 1596 1600 1600 1602 1603 1603 1603 1604 1605 1607 1610 1597 1598 1597 1598 1597 1599 1606 1613 1612 1611 1583 1580 1581 1582 1584 1584 1587 1588 1588
1574 1576 1576 1576 1577 1579 1585 1588 1590 1588 1588 1588 1590 1590 1591 1596 1597 1601 1603 1604 1604 1603 1604 1604 1607 1604 1606 1594 1594 1596 1594 1596 1600 1615 1605 1599 1577 1580 1580 1581 1582 1583 1584 1585 1585
1572 1572 1574 1578 1577 1577 1580 1585 1589 1589 1587 1587 1590 1589 1590 1597 1598 1599 1602 1604 1604 1603 1603 1604 1606 1604 1598 1595 1595 1592 1590 1594 1597 1592 1594 1573 1575 1568 1571 1574 1577 1580 1582 1583 1583
1571 1571 1573 1574 1574 1576 1580 1583 1585 1588 1587 1587 1588 1588 1590 1594 1596 1598 1599 1602 1601 1604 1604 1605 1605 1604 1599 1590 1591 1591 1585 1586 1587 1586 1585 1574 1570 1565 1567 1572 1576 1578 1579 1580 1580
1570 1570 1571 1575 1575 1577 1578 1580 1580 1582 1587 1586 1586 1587 1591 1594 1595 1597 1597 1598 1598 1600 1604 1606 1608 1610 1599 1595 1592 1587 1571 1578 1575 1573 1571 1572 1562 1564 1569 1570 1572 1575 1577 1578 1577